Temp
45 44 42 41 41 41 42 41 41 42 42 43 43 43 44 46 45 47 47 49 48 49 50 51 53 54 57 57 57 56 56 56
44 43 42 41 40 40 40 40 40 41 42 42 42 42 44 44 45 45 46 48 49 49 49 50 51 53 55 56 56 55 54 53
43 42 40 40 40 39 39 39 40 41 42 41 41 42 42 42 43 44 45 47 47 48 48 48 48 50 53 52 52 51 49 49
41 40 40 39 39 38 39 38 40 41 40 41 40 40 39 40 41 42 43 45 45 45 45 45 46 47 47 48 47 46 46 47
38 39 39 38 38 39 38 39 39 39 40 39 39 39 39 39 40 40 42 42 43 43 43 44 44 44 45 45 44 43 42 41
28 31 29 34 35 37 37 36 39 38 38 38 40 40 39 38 38 39 39 40 41 41 42 42 42 43 43 43 42 41 39 39
30 31 31 29 33 36 29 34 37 37 38 38 38 39 37 38 37 38 38 39 39 39 39 39 41 41 41 42 41 41 40 38
35 32 31 31 34 34 35 36 36 34 35 34 33 32 36 36 37 36 36 37 37 38 38 37 39 41 41 40 41 40 38 36
41 38 34 33 31 35 36 35 35 36 36 36 34 31 31 33 36 37 37 36 36 36 38 37 38 40 41 39 38 36 35 34
43 41 36 35 33 34 34 34 34 34 33 33 33 32 33 32 32 32 32 34 35 35 36 35 36 39 40 38 35 33 32 33
41 39 37 35 34 33 33 33 32 33 34 33 32 32 32 32 31 32 31 32 31 32 32 33 33 38 39 38 33 31 31 31
40 38 37 35 33 33 32 32 34 33 32 32 32 32 32 31 31 31 31 31 28 29 30 30 32 34 38 39 32 31 30 30
37 36 35 33 33 32 32 32 29 28 27 25 25 30 30 25 26 26 26 26 25 26 26 28 29 34 37 38 37 36 30 29
35 31 27 27 30 30 29 28 24 23 22 22 23 25 26 24 23 24 24 24 24 26 27 27 28 28 37 37 37 36 30 30
29 28 29 26 28 27 26 27 27 25 22 22 22 22 21 26 27 24 22 22 25 24 24 23 25 25 26 29 28 32 31 34
32 31 31 27 27 24 24 26 25 26 25 25 26 25 24 25 25 27 26 27 22 22 25 24 24 27 31 30 26 24 28 22
31 29 29 29 29 27 27 27 27 26 26 28 27 26 26 25 23 33 34 36 37 37 31 25 33 36 36 36 36 35 35 20
33 34 30 30 31 30 29 29 28 30 29 28 28 28 27 25 25 25 26 35 36 36 36 36 32 36 36 36 36 35 35 15
30 31 31 30 32 31 30 29 30 29 27 30 29 30 28 28 28 26 26 26 23 31 33 35 35 35 35 35 35 31 33 30
32 35 27 29 30 30 31 30 28 28 28 30 28 29 30 28 27 29 28 28 26 20 30 32 35 35 35 35 30 30 29 30
MSLP
1018.40 1019.03 1019.74 1020.16 1020.51 1020.66 1020.49 1020.70 1020.70 1020.65 1020.67 1020.52 1020.35 1020.25 1020.06 1019.69 1019.83 1019.80 1019.49 1019.14 1019.03 1018.87 1018.27 1018.22 1017.89 1017.65 1017.79 1018.02 1018.48 1018.90 1019.24 1019.64
1018.69 1019.27 1019.89 1020.29 1020.51 1020.90 1020.75 1020.81 1020.84 1020.86 1020.83 1020.77 1020.75 1020.47 1020.21 1020.24 1020.18 1019.96 1019.65 1019.15 1018.88 1018.83 1018.73 1018.69 1018.40 1018.12 1017.96 1018.09 1018.42 1018.84 1019.29 1019.65
1019.15 1019.52 1020.04 1020.43 1020.74 1020.85 1021.13 1020.93 1020.79 1020.65 1020.70 1020.91 1020.89 1020.94 1021.12 1020.90 1020.64 1020.34 1019.88 1019.48 1019.29 1019.30 1019.16 1018.93 1018.74 1018.51 1018.47 1018.75 1018.94 1019.29 1020.05 1020.35
1019.52 1019.86 1020.11 1020.48 1020.84 1021.09 1021.27 1021.55 1021.39 1021.13 1021.03 1021.05 1021.21 1021.31 1021.28 1021.07 1020.95 1020.75 1020.35 1019.94 1019.86 1019.53 1019.36 1019.34 1019.20 1019.18 1019.38 1019.40 1019.89 1020.38 1020.71 1020.81
1019.91 1020.29 1020.54 1020.68 1020.96 1021.16 1021.31 1021.53 1021.58 1021.45 1021.31 1021.33 1021.39 1021.28 1021.40 1021.47 1021.24 1020.85 1020.55 1020.44 1020.20 1020.04 1019.81 1019.68 1019.78 1019.80 1020.06 1020.28 1020.74 1021.05 1021.42 1021.56
1020.26 1020.77 1020.89 1021.11 1021.30 1021.37 1021.42 1021.50 1021.49 1021.53 1021.48 1021.51 1021.54 1021.71 1021.70 1021.52 1021.24 1021.10 1020.84 1020.72 1020.74 1020.44 1020.33 1020.54 1020.30 1020.51 1020.60 1020.95 1021.42 1021.62 1022.21 1022.57
1020.23 1020.45 1020.97 1021.36 1021.56 1021.53 1021.59 1021.76 1021.64 1021.69 1021.65 1021.75 1021.92 1021.97 1022.03 1021.90 1021.73 1021.60 1021.41 1021.21 1021.07 1021.11 1021.01 1021.23 1021.03 1021.16 1021.18 1021.42 1021.86 1022.39 1022.82 1023.18
1019.46 1019.80 1020.21 1020.83 1021.28 1021.46 1021.46 1021.57 1021.74 1021.94 1022.16 1022.38 1022.30 1022.25 1022.09 1021.93 1021.98 1022.16 1022.25 1022.03 1021.92 1021.85 1021.67 1021.74 1021.89 1021.72 1021.79 1022.05 1022.45 1022.73 1023.11 1023.40
1018.58 1019.17 1019.90 1020.23 1020.65 1021.17 1021.43 1021.75 1022.01 1022.20 1022.28 1022.22 1022.35 1022.35 1022.16 1022.20 1022.22 1022.25 1022.31 1022.46 1022.57 1022.64 1022.57 1022.65 1022.93 1022.66 1022.58 1022.59 1022.83 1023.35 1023.51 1023.74
1017.77 1018.52 1019.25 1019.84 1020.26 1020.74 1021.34 1021.72 1022.01 1022.20 1022.45 1022.58 1022.57 1022.57 1022.55 1022.61 1022.64 1022.71 1022.62 1022.60 1022.82 1023.01 1023.14 1023.32 1023.38 1023.15 1023.11 1023.18 1023.47 1023.97 1024.23 1024.29
1017.45 1018.22 1019.04 1019.61 1020.10 1020.58 1021.13 1021.62 1021.96 1022.09 1022.38 1022.64 1022.86 1023.03 1023.05 1022.90 1022.94 1022.98 1023.08 1023.25 1023.31 1023.44 1023.46 1023.50 1023.52 1023.38 1023.17 1023.31 1023.68 1024.26 1024.62 1024.80
1017.36 1018.21 1018.87 1019.52 1020.00 1020.49 1020.79 1021.21 1021.44 1021.90 1022.19 1022.59 1022.96 1023.18 1023.35 1023.45 1023.48 1023.41 1023.45 1023.64 1023.53 1023.39 1023.49 1023.52 1023.57 1023.48 1023.31 1023.35 1023.71 1024.10 1024.58 1024.89
1017.72 1018.43 1018.91 1019.50 1020.10 1020.64 1020.70 1020.49 1021.09 1021.84 1022.39 1022.68 1022.83 1023.15 1023.42 1023.64 1023.72 1023.70 1023.68 1023.65 1023.70 1023.79 1023.88 1023.77 1023.69 1023.61 1023.70 1023.83 1023.99 1024.12 1024.45 1024.95
1018.03 1018.83 1018.98 1019.33 1019.76 1020.55 1020.20 1020.39 1021.01 1021.94 1022.69 1022.87 1023.10 1023.23 1023.18 1023.57 1023.94 1023.92 1023.93 1024.20 1024.26 1024.02 1023.87 1023.82 1023.73 1023.73 1023.49 1023.34 1023.33 1023.48 1024.04 1024.39
1018.19 1018.63 1018.99 1019.28 1019.68 1019.93 1020.24 1020.39 1020.92 1021.54 1022.20 1022.59 1023.10 1023.27 1023.26 1023.21 1023.33 1023.92 1024.01 1023.92 1023.78 1024.03 1024.18 1024.19 1024.32 1023.90 1023.75 1023.84 1023.80 1024.00 1024.27 1024.38
1017.62 1018.08 1018.31 1018.76 1019.38 1019.72 1019.88 1020.40 1020.92 1021.13 1021.47 1021.91 1022.23 1022.72 1023.05 1023.15 1023.22 1023.13 1023.00 1023.13 1023.42 1023.53 1023.39 1023.45 1023.53 1023.27 1023.44 1023.52 1023.82 1024.17 1024.43 1025.42
1017.07 1017.61 1017.80 1018.23 1018.59 1019.07 1019.36 1019.71 1020.35 1020.86 1021.04 1021.11 1021.50 1021.91 1022.33 1022.62 1022.63 1022.54 1022.61 1022.54 1022.41 1022.59 1022.76 1022.79 1022.68 1022.67 1022.83 1023.12 1023.52 1024.04 1024.27 1024.85
1016.15 1016.46 1016.85 1017.37 1017.81 1018.07 1018.56 1019.13 1019.56 1019.91 1020.20 1020.54 1020.86 1021.10 1021.36 1021.80 1022.04 1022.18 1021.81 1021.79 1022.00 1022.19 1022.40 1022.49 1022.54 1022.58 1022.60 1022.79 1023.16 1023.54 1023.82 1024.51
1015.50 1016.17 1016.43 1016.68 1016.88 1017.06 1017.62 1018.35 1018.76 1019.18 1019.56 1019.96 1020.18 1020.44 1020.54 1020.67 1021.01 1021.30 1021.50 1021.50 1021.31 1021.27 1021.55 1021.91 1022.24 1022.40 1022.68 1023.00 1023.30 1023.44 1023.48 1023.73
1015.00 1015.31 1015.77 1016.05 1016.28 1016.41 1016.81 1017.48 1018.02 1018.55 1018.90 1019.01 1019.31 1019.59 1019.92 1020.09 1020.19 1020.40 1020.61 1020.81 1020.78 1020.78 1020.74 1020.90 1021.40 1021.94 1022.42 1022.73 1022.85 1022.87 1022.92 1023.02
Wind_Speed
3 6 4 3 1 2 2 3 4 4 4 4 5 5 4 5 5 5 4 2 3 4 5 6 5 3 3 4 4 4 3 3
3 6 6 3 1 1 2 3 3 3 3 4 5 6 6 4 5 5 6 6 6 5 5 5 5 3 1 4 5 6 4 4
2 5 6 5 2 0 3 3 3 3 4 4 4 5 4 4 5 5 5 4 5 5 4 5 5 5 4 5 6 6 6 5
1 2 3 6 5 3 2 3 1 3 4 4 5 4 4 4 4 4 4 4 3 4 5 5 6 6 6 7 7 7 6 5
3 1 3 3 4 4 3 2 1 3 4 4 4 5 5 4 3 4 4 4 4 4 5 6 6 6 6 7 8 8 8 8
4 3 2 1 2 2 4 2 1 2 4 4 4 4 4 5 6 5 5 5 5 6 7 7 7 4 7 7 7 9 9 7
5 5 6 5 4 3 2 4 2 2 3 4 3 4 4 5 6 6 6 5 6 7 7 7 6 11 11 9 7 7 7 7
8 7 6 7 6 5 6 5 4 5 4 4 3 4 4 4 6 6 6 6 7 7 7 8 6 10 10 9 6 6 6 6
6 5 7 6 6 4 5 4 3 3 3 3 4 4 3 4 5 5 4 5 4 6 6 7 6 9 9 10 6 6 6 6
7 6 7 8 7 7 5 4 4 4 3 2 1 2 3 4 5 3 4 5 5 4 6 5 5 9 8 6 6 6 6 5
8 6 7 7 7 7 6 5 5 5 4 4 2 2 2 4 4 2 3 4 3 5 5 5 5 7 8 6 3 5 3 4
7 8 7 7 7 7 7 7 6 5 6 4 3 2 2 2 1 3 5 4 3 5 4 5 4 4 7 7 3 3 4 4
7 7 7 8 7 7 8 5 5 5 4 3 4 3 3 3 1 1 2 3 4 4 2 1 2 5 5 5 6 7 5 4
7 6 3 6 7 7 6 7 6 5 4 4 3 2 3 4 2 1 1 1 2 0 2 3 3 2 7 10 10 10 5 5
6 6 7 6 6 5 4 5 7 7 6 5 5 3 3 2 3 2 2 1 3 3 2 1 1 1 2 2 2 6 5 9
7 7 8 7 7 6 5 6 5 5 6 6 5 5 4 3 3 4 3 5 4 3 3 4 4 5 8 7 4 3 6 5
7 6 6 7 7 7 7 8 7 6 5 6 5 5 4 4 4 10 11 9 10 6 6 3 5 8 13 13 10 11 15 2
9 9 6 6 7 7 8 9 9 9 6 5 5 6 6 4 5 5 4 15 12 12 12 10 5 8 11 13 14 14 15 3
5 5 6 6 8 7 8 9 9 7 6 5 5 6 5 6 6 4 5 5 4 14 14 15 15 12 13 11 12 7 12 8
4 5 5 6 5 7 8 9 8 6 5 6 4 5 6 4 5 6 6 6 4 1 8 13 17 16 14 16 8 10 10 11
Wind_Direction
118 129 114 101 32 70 9 61 66 39 32 15 360 3 360 6 356 342 342 335 335 340 6 343 333 338 253 145 152 160 139 159
98 112 117 122 283 66 18 47 43 47 55 35 11 2 0 359 356 359 329 348 6 4 4 338 351 337 121 139 154 139 140 110
53 134 158 157 155 31 97 19 35 31 37 50 36 26 5 0 353 341 343 358 1 358 5 12 12 359 71 78 56 76 81 87
224 181 179 141 153 168 87 100 38 84 61 33 33 30 17 10 353 344 344 18 25 34 42 28 30 41 48 73 77 78 72 76
304 72 95 103 130 143 120 83 344 74 75 64 30 24 10 355 3 16 14 23 34 42 56 56 69 71 76 87 90 81 73 61
226 235 301 166 141 113 122 76 247 100 82 73 61 41 22 12 10 15 32 39 35 48 54 49 55 56 79 82 93 89 83 78
234 200 201 216 203 196 171 185 177 106 103 92 87 96 62 32 25 22 28 34 49 60 68 61 59 80 88 90 94 100 100 95
219 207 190 175 188 199 190 169 174 160 144 124 100 81 69 77 73 43 32 27 36 50 63 64 55 77 94 92 91 95 99 102
202 192 184 172 159 175 148 178 194 183 156 159 151 123 115 69 82 92 86 65 52 46 54 67 55 54 81 86 90 91 87 100
179 170 158 166 164 150 161 186 186 187 179 177 157 144 114 96 99 67 82 97 89 65 61 73 62 51 64 78 82 80 82 76
157 140 153 172 158 156 177 186 210 196 175 168 163 177 165 148 131 110 107 94 76 82 80 84 86 51 53 93 104 105 83 72
146 162 176 162 157 176 176 206 207 183 152 148 153 162 161 128 40 140 125 101 95 108 105 95 97 101 99 103 117 127 116 104
160 179 174 166 162 186 205 194 167 145 144 155 149 153 131 123 78 49 101 136 144 131 103 88 123 121 106 95 114 135 129 144
173 171 197 177 173 196 219 162 150 140 163 171 162 172 154 143 170 171 160 128 309 324 169 172 170 167 158 149 149 151 138 145
153 185 209 202 203 203 178 159 156 169 178 176 175 204 213 185 170 174 186 214 181 190 228 239 307 236 196 168 136 144 138 148
188 203 216 181 211 191 176 153 178 182 176 190 189 193 200 219 208 210 213 180 191 224 195 177 211 214 200 177 161 149 153 114
202 206 207 192 207 197 188 174 174 192 195 195 193 184 189 196 252 243 234 239 240 240 203 241 249 221 199 198 188 185 171 91
205 215 190 194 207 194 185 183 194 209 196 189 189 191 189 194 202 239 262 232 234 237 240 234 220 211 205 205 201 197 189 155
172 208 212 207 220 190 176 186 204 208 195 190 194 203 196 195 209 202 206 225 233 228 224 228 229 224 218 208 201 209 216 216
185 222 206 219 235 189 175 186 191 187 201 197 188 191 209 196 190 207 217 230 224 225 214 211 219 222 223 218 213 214 215 219